Find Starlink 36402

NORAD ID: 68966 Int'l Des: 2026-099 Owner: SPXS Country: US Constellation: starlink operational
LEOCIRCULAR

实时位置

正在加载3D地球...

关于 Starlink 36402

正在加载描述...

即将过境

Passes for default location (London). Set your location on the main map for personalized predictions.

高度历史

Loading altitude history...

两行轨道根数

1 68966C 26099R 26125.78798611 -.01472200 00000+0 -23512-2 0 1257
2 68966 53.1617 7.4828 0000337 100.7328 220.6504 16.03674441 19
Epoch: May 5, 2026 • Age: 30 hours

当前状态

高度 268.2 km
速度 7.75 km/s
星下点 17.25°N, 145.52°W
发射日期 May 1, 2026
运行时间 4 days
类型 internet

技术详情

分类 Payload
质量 575.00 kg
干质量 530.00 kg
总质量 575.00 kg
长度 0.30 m
直径 4.10 m
跨度 29.00 m
形状 Box + pan
制造商 SPXS
平台类型 Starlink V2MO
阶段状态 In Orbit
所有者/国家 SPXS/US

Most Searched